User: anonymous   Login
Location: Prague
(50.0830°N, 14.4670°E)
Time: 06:51:40
(UTC+01:00)
Language:

CUBEBUG 2 - Orbit

View from above orbital plane
View from above orbital plane
View from above satellite
View from above satellite

Ground track
Ground track

The orbit data is extracted from the following two-line orbital elements,

1 39440U 13066AA  21338.91262857  .00000638  00000-0  94085-4 0  9990
2 39440  97.7003 300.0635 0080704  43.2887 317.4627 14.76410323431577
Epoch (UTC): 04 December 2021 21:54:11
Eccentricity: 0.0080704
inclination: 97.7003°
perigee height: 584 km
apogee height: 697 km
right ascension of ascending node: 300.0635°
argument of perigee: 43.2887°
revolutions per day: 14.76410323
mean anomaly at epoch: 317.4627°
orbit number at epoch: 43157

The dashed part of the orbit path shows where the satellite is in the earth's shadow,  

DLR